G4CVN Weather Reports


time (UTC)temp
F
wind
direction
speed
knots
gust
knots
rain 1hr
in
rain 24hr
in
rain mn
in
humidity
%
barometer
mb
20260506072516 50 0 0.9 1.7 0.00 0.00 0.00 80 1016.6
20260506071516 49 23 0.9 2.6 0.00 0.00 0.00 81 1016.6
20260506070516 49 0 0.9 1.7 0.00 0.00 0.00 82 1016.6
20260506062517 48 0 0.9 1.7 0.00 0.00 0.00 85 1016.3
20260506061517 47 23 0.9 3.5 0.00 0.00 0.00 86 1016.4
20260506060517 47 0.0 0.9 0.00 0.00 0.00 86 1016.4
20260506050536 48 0.0 1.7 0.00 0.00 0.00 84 1016.2
20260506044536 48 0.0 1.7 0.00 0.00 0.00 84 1016.1
20260506043517 49 23 0.9 1.7 0.00 0.00 0.00 84 1016.0
20260506042537 49 0.0 1.7 0.00 0.00 0.00 84 1016.0
20260506041517 49 0.0 2.6 0.00 0.00 0.00 83 1016.0
20260506040517 49 0.0 1.7 0.00 0.00 0.00 83 1015.9
20260506035517 49 0.0 2.6 0.00 0.00 0.00 82 1015.9
20260506034516 50 0.0 0.9 0.00 0.00 0.00 82 1015.8
20260506033517 50 0.0 1.7 0.00 0.00 0.00 82 1015.8
20260506032517 50 0.0 2.6 0.00 0.00 0.00 82 1015.9
20260506031516 50 0.0 1.7 0.00 0.00 0.00 82 1016.0
20260506030516 50 0.0 1.7 0.00 0.00 0.00 81 1015.9
20260506025516 50 0.0 0.9 0.00 0.00 0.00 81 1016.0
20260506024517 50 0.0 2.6 0.00 0.00 0.00 81 1015.9
20260506023516 50 0 0.9 3.5 0.00 0.00 0.00 81 1015.9
20260506022516 50 0.0 2.6 0.00 0.00 0.00 81 1016.0
20260506021517 50 0 0.9 1.7 0.00 0.00 0.00 81 1016.0
20260506020516 51 0 0.9 1.7 0.00 0.00 0.00 81 1016.1
20260506015517 51 0.0 1.7 0.00 0.00 0.00 81 1016.1
20260506014516 51 23 0.9 3.5 0.00 0.00 0.00 80 1016.1
20260506013516 51 0 0.9 4.3 0.00 0.00 0.00 80 1016.2
20260506012557 51 0.0 2.6 0.00 0.00 0.00 81 1016.2
20260506011517 52 0.0 1.7 0.00 0.00 0.00 81 1016.2
20260506010517 52 0.0 2.6 0.00 0.00 0.00 81 1016.2
20260506005516 52 0.0 1.7 0.00 0.00 0.00 81 1016.3
20260506004516 52 0.0 1.7 0.00 0.00 0.00 82 1016.2
20260506003516 53 23 0.9 1.7 0.00 0.00 0.00 81 1016.3
20260506002516 53 338 0.9 1.7 0.00 0.00 0.00 80 1016.3
20260506001557 53 315 0.9 1.7 0.00 0.00 0.00 79 1016.4
20260506000517 53 338 0.9 3.5 0.00 0.00 0.00 78 1016.4
20260505235516 53 0.0 0.9 0.00 0.00 0.00 77 1016.3
20260505234517 53 0.0 0.9 0.00 0.00 0.00 77 1016.3
20260505233517 53 0.0 1.7 0.00 0.00 0.00 76 1016.2
20260505232516 53 0.0 0.9 0.00 0.00 0.00 76 1016.3
20260505231537 53 0.0 1.7 0.00 0.00 0.00 75 1016.3
20260505230537 53 0.0 1.7 0.00 0.00 0.00 75 1016.3
20260505225517 53 0.0 0.9 0.00 0.00 0.00 74 1016.3
20260505224516 53 0.0 1.7 0.00 0.00 0.00 73 1016.3
20260505223517 54 315 0.9 3.5 0.00 0.00 0.00 73 1016.3
20260505222516 54 0.0 0.9 0.00 0.00 0.00 72 1016.3
20260505221517 54 0.0 0.9 0.00 0.00 0.00 70 1016.2
20260505220516 54 0.0 1.7 0.00 0.00 0.00 68 1016.3
20260505215517 55 315 0.9 3.5 0.00 0.00 0.00 67 1016.3
20260505214517 55 315 0.9 2.6 0.00 0.00 0.00 66 1016.2
20260505213516 55 0 0.9 3.5 0.00 0.00 0.00 66 1016.1
20260505212517 56 0.0 1.7 0.00 0.00 0.00 66 1016.1
20260505211516 56 0.0 1.7 0.00 0.00 0.00 67 1016.0
20260505210536 56 293 0.9 1.7 0.00 0.00 0.00 67 1015.9
20260505205537 56 293 0.9 2.6 0.00 0.00 0.00 66 1015.8
20260505204516 57 0.0 1.7 0.00 0.00 0.00 67 1015.8
20260505203517 57 0.0 0.9 0.00 0.00 0.00 66 1015.7
20260505202537 57 0.0 1.7 0.00 0.00 0.00 67 1015.6
20260505201517 57 0.0 0.9 0.00 0.00 0.00 67 1015.6
20260505200517 57 0.0 0.9 0.00 0.00 0.00 67 1015.5
20260505195517 57 0.0 0.0 0.00 0.00 0.00 68 1015.3
20260505194517 57 0.0 0.9 0.00 0.00 0.00 66 1015.2
20260505193536 58 0.0 0.0 0.00 0.00 0.00 66 1015.2
20260505192517 58 0.0 0.9 0.00 0.00 0.00 65 1015.1
20260505191536 58 0.0 0.9 0.00 0.00 0.00 64 1015.0
20260505190517 59 0.0 0.9 0.00 0.00 0.00 63 1014.9
20260505185517 59 0.0 0.9 0.00 0.00 0.00 62 1015.0
20260505184537 59 0.0 0.9 0.00 0.00 0.00 61 1014.9
20260505183517 60 0.0 0.9 0.00 0.00 0.00 59 1014.9
20260505182517 60 0.0 0.0 0.00 0.00 0.00 58 1014.8
20260505181517 60 0.0 0.9 0.00 0.00 0.00 57 1014.8
20260505180517 60 0.0 0.9 0.00 0.00 0.00 57 1014.8
20260505175517 60 0.0 0.9 0.00 0.00 0.00 56 1014.8
20260505174517 60 0.0 0.0 0.00 0.00 0.00 56 1014.8
20260505173537 61 0.0 0.9 0.00 0.00 0.00 55 1014.8
20260505172517 61 0.0 0.9 0.00 0.00 0.00 55 1014.9
20260505171517 61 0.0 0.9 0.00 0.00 0.00 54 1014.9
20260505170537 61 0.0 0.9 0.00 0.00 0.00 54 1015.0
20260505165517 61 0.0 1.7 0.00 0.00 0.00 53 1014.9
20260505164517 61 270 0.9 1.7 0.00 0.00 0.00 52 1014.8
20260505163517 62 270 0.9 3.5 0.00 0.00 0.00 50 1014.9
20260505162517 62 0.0 0.9 0.00 0.00 0.00 51 1015.0
20260505161517 62 0.0 0.9 0.00 0.00 0.00 51 1015.0
20260505160517 62 0.0 0.9 0.00 0.00 0.00 53 1015.0
20260505152517 63 293 0.9 3.5 0.00 0.00 0.00 53 1015.1
20260505151517 63 0.0 1.7 0.00 0.00 0.00 53 1015.1
20260505150517 64 0.0 0.9 0.00 0.00 0.00 53 1015.1
20260505140518 64 23 0.9 2.6 0.00 0.00 0.00 53 1015.3
20260505124517 69 225 0.9 3.5 0.00 0.00 0.00 56 1015.5
20260505123517 68 0.0 3.5 0.00 0.00 0.00 54 1015.5
20260505122517 67 293 0.9 3.5 0.00 0.00 0.00 54 1015.7
20260505121517 66 0 0.9 3.5 0.00 0.00 0.00 56 1015.7
20260505120517 66 293 0.9 3.5 0.00 0.00 0.00 55 1015.7
20260505115537 66 0.0 1.7 0.00 0.00 0.00 56 1015.7
20260505114517 66 0.0 2.6 0.00 0.00 0.00 56 1015.7
20260505113517 66 338 0.9 1.7 0.00 0.00 0.00 59 1015.9
20260505112537 66 0.0 1.7 0.00 0.00 0.00 59 1015.8
20260505111517 65 0 0.9 3.5 0.00 0.00 0.00 61 1015.9
20260505110537 64 338 0.9 2.6 0.00 0.00 0.00 62 1016.0
20260505101517 63 0.0 1.7 0.00 0.00 0.00 65 1016.1
20260505100517 64 338 0.9 3.5 0.00 0.00 0.00 63 1016.1
20260505095517 64 0 0.9 2.6 0.00 0.00 0.00 66 1016.1
20260505094517 63 315 0.9 1.7 0.00 0.00 0.00 69 1016.2
20260505093517 62 0 1.7 5.2 0.00 0.00 0.00 68 1016.4
20260505092517 61 270 0.9 4.3 0.00 0.00 0.00 68 1016.5
20260505091537 61 0 0.9 7.0 0.00 0.00 0.00 69 1016.5
20260505090517 61 315 0.9 4.3 0.00 0.00 0.00 71 1016.5
20260505085517 60 23 0.9 4.3 0.00 0.00 0.00 66 1016.5
20260505084517 60 0 0.9 4.3 0.00 0.00 0.00 67 1016.5
20260505083515 60 0 0.9 2.6 0.00 0.00 0.00 70 1016.4
20260505082517 59 315 0.9 1.7 0.00 0.00 0.00 69 1016.5
20260505081517 59 0.0 2.6 0.00 0.00 0.00 71 1016.5
20260505080517 58 338 0.9 2.6 0.00 0.00 0.00 74 1016.6
20260505075517 57 0 0.9 3.5 0.00 0.00 0.00 77 1016.5
20260505074517 56 338 0.9 5.2 0.00 0.00 0.00 78 1016.6
20260505073517 56 45 0.9 1.7 0.00 0.00 0.00 81 1016.5